TimeCDT,TemperatureF,Dew PointF,Humidity,Sea Level PressureIn,VisibilityMPH,Wind Direction,Wind SpeedMPH,Gust SpeedMPH,PrecipitationIn,Events,Conditions,WindDirDegrees,DateUTC
12:52 AM,71.1,59.0,66,30.01,10.0,South,4.6,-,N/A,,Clear,180,2013-06-15 05:52:00
1:52 AM,66.9,63.0,87,30.02,10.0,SSW,4.6,-,N/A,,Clear,200,2013-06-15 06:52:00
2:52 AM,68.0,62.1,81,30.00,10.0,South,5.8,-,N/A,,Clear,170,2013-06-15 07:52:00
3:52 AM,69.1,63.0,81,30.02,10.0,South,6.9,-,N/A,,Clear,190,2013-06-15 08:52:00
4:52 AM,69.1,64.9,87,30.07,10.0,West,5.8,-,0.00,Rain,Light Rain,260,2013-06-15 09:52:00
5:52 AM,66.0,66.0,100,30.06,10.0,South,3.5,-,0.01,Rain,Light Rain,180,2013-06-15 10:52:00
6:52 AM,68.0,66.0,93,29.96,10.0,SSE,10.4,-,0.00,,Scattered Clouds,150,2013-06-15 11:52:00
7:52 AM,70.0,66.0,87,29.96,10.0,South,12.7,-,N/A,,Clear,180,2013-06-15 12:52:00
8:52 AM,72.0,64.9,78,29.99,10.0,SSW,12.7,-,0.01,,Mostly Cloudy,200,2013-06-15 13:52:00
9:52 AM,73.0,66.0,79,30.00,10.0,SSW,11.5,-,0.00,Rain,Rain,210,2013-06-15 14:52:00
10:52 AM,69.1,69.1,100,30.05,6.0,WSW,10.4,-,0.10,Rain-Thunderstorm,Thunderstorms and Rain,250,2013-06-15 15:52:00
11:52 AM,71.1,69.1,93,29.99,10.0,South,11.5,-,0.07,Rain-Thunderstorm,Thunderstorms and Rain,190,2013-06-15 16:52:00
12:52 PM,69.1,69.1,100,30.03,5.0,West,9.2,-,0.09,Rain-Thunderstorm,Thunderstorms and Rain,270,2013-06-15 17:52:00
1:52 PM,70.0,69.1,97,30.06,5.0,West,11.5,-,0.21,Rain-Thunderstorm,Thunderstorms and Rain,280,2013-06-15 18:52:00
1:55 PM,71.6,68.0,88,30.07,1.2,West,9.2,-,0.06,Rain-Thunderstorm,Thunderstorms and Rain,260,2013-06-15 18:55:00
2:14 PM,68.0,66.2,94,30.03,1.8,SSE,13.8,-,0.36,Rain-Thunderstorm,Thunderstorms and Rain,160,2013-06-15 19:14:00
2:25 PM,68.0,66.2,94,30.01,3.0,SE,12.7,-,0.46,Rain-Thunderstorm,Thunderstorms and Rain,140,2013-06-15 19:25:00
2:40 PM,68.0,66.2,94,30.01,10.0,SE,8.1,-,0.46,,Overcast,130,2013-06-15 19:40:00
2:52 PM,73.0,73.0,100,29.99,10.0,ESE,11.5,-,0.46,,Mostly Cloudy,120,2013-06-15 19:52:00
3:52 PM,77.0,73.9,90,29.98,10.0,SE,6.9,-,N/A,,Overcast,140,2013-06-15 20:52:00
4:52 PM,81.0,72.0,74,29.93,10.0,SE,11.5,-,N/A,,Clear,140,2013-06-15 21:52:00
5:52 PM,82.0,70.0,67,29.91,10.0,SSE,12.7,-,N/A,,Clear,160,2013-06-15 22:52:00
6:52 PM,79.0,72.0,79,29.91,10.0,South,8.1,-,N/A,,Clear,170,2013-06-15 23:52:00
7:41 PM,77.0,73.4,89,29.95,10.0,South,6.9,-,N/A,Thunderstorm,Thunderstorm,190,2013-06-16 00:41:00
7:52 PM,77.0,73.0,88,29.94,10.0,South,6.9,-,N/A,Thunderstorm,Thunderstorm,180,2013-06-16 00:52:00
8:52 PM,73.9,73.9,100,29.96,8.0,WSW,5.8,-,0.03,Rain-Thunderstorm,Light Thunderstorms and Rain,250,2013-06-16 01:52:00
9:52 PM,68.0,-9999,N/A,30.04,8.0,WNW,17.3,23.0,0.13,Rain-Thunderstorm,Thunderstorms and Rain,300,2013-06-16 02:52:00
9:54 PM,68.0,-9999,N/A,30.06,7.0,WNW,21.9,27.6,0.00,Rain-Thunderstorm,Rain,300,2013-06-16 02:54:00
10:10 PM,68.0,-9999,N/A,30.05,7.0,WNW,13.8,23.0,0.06,Rain,Rain,300,2013-06-16 03:10:00
10:52 PM,68.0,-9999,N/A,30.06,10.0,NW,5.8,-,0.11,Rain,Light Rain,310,2013-06-16 03:52:00
11:52 PM,68.0,-9999,N/A,30.03,10.0,Calm,Calm,-,0.02,,Mostly Cloudy,0,2013-06-16 04:52:00